Tracking 32523 objects as of 12-Dec-2025
HD Live streaming from Space Station
objects crossing your sky now

STARLINK-32077

Track STARLINK-32077 now!
10-day predictions
STARLINK-32077 is classified as:


NORAD ID: 60344
Int'l Code: 2024-136R
Perigee: 481.8 km
Apogee: 482.9 km
Inclination: 53.2 °
Period: 94.1 minutes
Semi major axis: 6853 km
RCS: Unknown
Launch date: August 2, 2024
Source: United States (US)
Launch site: AIR FORCE EASTERN TEST RANGE (AFETR)
Your satellite tracking list
Your tracking list is empty




NASA's NSSDC Master Catalog

Two Line Element Set (TLE):
1 60344U 24136R   25345.82441614  .00000305  00000-0  22404-4 0  9996
2 60344  53.1592 123.6726 0000825  85.8241 274.2854 15.30196630 76216
Source of the keplerian elements: AFSPC